HORYU-4

Last updated on Thu Oct 23 2025 00:03:57 GMT+0000 (Coordinated Universal Time)

1 41340U 16012D 25295.28377617 .00049187 00000+0 10033-2 0 9993 2 41340 30.9957 301.7129 0003064 49.3366 310.7548 15.44938490533572
UTC large
Height (km)
Speed (km/s)
/
Latitude / Longitude
Inclination (degrees)
Orbital Period (minutes)
Azimuth
Elevation
Range (km)
Doppler Factor

Next 0 passes for location: London (51.5072 / 0.1276)

Sorry there are no passes over London.